Total_Precipitation_Accumulation
0.62 1.05 0.72 1.01 0.89 0.69 0.73 1.00 0.81 0.28 0.42 0.32 0.24 0.12 0.08 0.12 0.19 0.18 0.09 0.13 0.19 0.16 0.10 0.14 0.15 0.15 0.14 0.06 0.15 0.13 0.07 0.10 0.28 0.09 0.07 0.08 0.10 0.08 0.12 0.04 0.05 0.05
0.56 1.08 1.15 1.16 0.93 0.79 0.84 0.65 0.68 0.55 0.32 0.43 0.17 0.21 0.13 0.05 0.05 0.05 0.12 0.09 0.09 0.06 0.08 0.13 0.36 0.24 0.19 0.08 0.17 0.14 0.13 0.09 0.20 0.13 0.05 0.07 0.06 0.13 0.06 0.05 0.03 0.03
0.71 0.56 0.72 0.77 0.68 0.82 0.75 0.71 0.41 0.57 0.39 0.32 0.40 0.41 0.30 0.11 0.08 0.05 0.09 0.10 0.08 0.08 0.05 0.05 0.10 0.13 0.07 0.17 0.15 0.13 0.14 0.12 0.16 0.06 0.08 0.07 0.04 0.08 0.12 0.07 0.08 0.07
0.56 0.57 0.59 0.93 0.73 0.77 0.97 1.00 0.76 0.31 0.40 0.37 0.27 0.30 0.12 0.19 0.15 0.10 0.15 0.08 0.14 0.11 0.10 0.16 0.16 0.09 0.09 0.09 0.20 0.11 0.12 0.12 0.12 0.06 0.12 0.17 0.09 0.07 0.11 0.09 0.06 0.09
0.54 0.60 0.43 0.68 0.79 1.10 0.88 0.51 0.43 0.31 0.24 0.20 0.19 0.15 0.13 0.13 0.10 0.18 0.24 0.12 0.16 0.49 0.24 0.08 0.12 0.09 0.08 0.09 0.20 0.21 0.10 0.21 0.14 0.12 0.13 0.12 0.06 0.03 0.06 0.05 0.05 0.04
0.95 0.90 0.80 1.02 1.08 1.00 0.80 0.45 0.31 0.50 0.38 0.29 0.27 0.21 0.11 0.09 0.10 0.18 0.26 0.27 0.29 0.21 0.17 0.21 0.32 0.26 0.40 0.20 0.15 0.17 0.22 0.16 0.27 0.12 0.12 0.08 0.06 0.06 0.04 0.06 0.06 0.04
0.82 1.17 0.95 0.90 0.92 0.61 0.77 0.72 0.65 0.43 0.35 0.44 0.86 0.31 0.22 0.19 0.16 0.18 0.24 0.42 0.23 0.20 0.13 0.29 0.58 0.34 0.25 0.23 0.39 0.42 0.13 0.07 0.15 0.39 0.29 0.18 0.11 0.13 0.08 0.07 0.05 0.03
1.07 1.28 1.60 1.12 1.16 1.08 0.89 0.78 0.64 0.49 0.43 0.52 0.33 0.61 0.30 0.24 0.19 0.12 0.27 0.28 0.31 0.22 0.22 0.29 0.20 0.50 0.58 0.34 0.36 0.20 0.25 0.16 0.17 0.18 0.17 0.08 0.08 0.10 0.10 0.09 0.05 0.03
2.84 1.96 1.55 1.63 1.28 0.82 0.65 0.69 0.67 0.64 0.30 0.45 0.44 0.46 0.40 0.21 0.16 0.25 0.13 0.24 0.39 0.40 0.35 0.23 0.21 0.53 0.28 0.32 0.28 0.30 0.32 0.23 0.36 0.33 0.31 0.12 0.10 0.14 0.12 0.13 0.17 0.15
1.76 1.54 1.59 2.22 1.49 1.15 1.12 1.06 0.61 0.46 0.28 0.42 0.50 0.27 0.17 0.12 0.11 0.32 0.24 0.62 0.55 0.32 0.21 0.14 0.67 0.52 0.50 0.32 0.33 0.27 0.36 0.17 0.41 0.41 0.25 0.25 0.09 0.10 0.19 0.32 0.28 0.22
1.78 1.53 1.87 1.79 1.09 0.96 0.96 1.10 0.82 0.80 0.63 0.50 0.39 0.29 0.30 0.29 0.44 0.32 0.56 0.45 0.38 0.28 0.50 0.42 0.38 0.32 0.42 0.57 0.55 0.35 0.37 0.64 0.69 0.53 0.29 0.11 0.08 0.15 0.23 0.57 0.28 0.30
1.94 1.68 1.49 1.31 1.01 0.80 0.76 0.67 0.74 0.58 0.61 0.45 0.43 0.55 0.65 0.59 0.49 0.73 0.81 0.67 0.65 0.47 0.51 0.56 0.59 0.63 0.57 0.77 0.50 0.66 0.37 0.56 0.28 0.23 0.17 0.25 0.09 0.59 0.84 0.88 0.87 0.56
1.74 1.71 2.02 1.27 0.76 0.91 0.74 0.63 0.43 0.32 0.46 0.41 0.39 0.43 0.73 0.75 0.82 0.84 0.84 0.73 0.56 0.33 0.42 0.37 0.40 0.64 1.12 1.18 0.90 0.93 0.79 0.48 0.26 0.21 0.10 0.31 0.40 0.72 0.71 1.20 1.25 1.16
1.61 1.76 1.76 1.22 1.38 1.17 0.94 0.84 1.01 0.58 0.40 0.37 0.68 0.66 0.70 0.84 1.01 0.88 0.75 0.71 0.58 0.47 0.52 0.64 0.85 0.77 0.62 1.01 0.62 0.44 0.41 0.33 0.20 0.32 0.86 0.69 0.37 0.57 0.70 0.98 1.38 1.41
2.00 2.35 2.37 2.00 1.40 1.34 1.25 0.90 1.06 1.02 0.99 1.12 0.68 0.86 1.49 1.23 1.07 0.65 0.58 0.58 0.44 0.39 0.62 0.44 0.64 0.54 0.32 0.31 0.57 0.40 0.37 0.37 0.43 0.50 0.52 0.34 0.76 0.51 0.59 0.89 1.67 1.48
2.31 2.06 2.35 2.97 2.24 2.91 3.30 2.33 2.04 2.53 2.37 1.73 1.24 1.35 1.22 1.20 0.80 0.48 0.46 0.49 0.65 0.42 0.34 0.59 0.64 0.58 0.30 0.20 0.28 0.46 0.68 0.47 0.48 0.42 0.73 0.56 0.56 0.55 0.62 0.93 1.05 1.34
3.67 3.03 2.27 2.85 2.62 2.65 3.21 3.05 2.37 1.81 1.54 1.60 1.29 0.98 1.04 0.79 0.86 0.53 0.37 0.69 0.78 0.67 0.68 0.79 0.61 0.85 0.40 0.52 0.21 0.16 0.37 0.40 0.21 0.43 0.63 0.58 0.54 0.42 1.10 1.41 1.10 1.22
2.98 3.77 2.99 2.45 2.45 3.44 3.16 2.69 2.30 1.58 1.56 1.27 0.81 0.83 0.68 0.62 0.70 0.44 0.37 0.34 0.35 0.51 0.65 0.80 0.94 0.57 0.61 0.54 0.09 0.02 0.01 0.13 0.34 0.40 0.84 0.85 0.84 0.79 0.71 0.75 1.13 1.19
3.87 4.61 3.41 2.89 3.46 4.49 4.09 3.74 2.25 2.00 1.90 1.49 0.79 0.99 1.13 0.61 0.57 0.57 0.56 0.58 0.41 0.59 0.85 0.46 0.46 1.01 0.11 0.07 0.01 0.01 0.01 0.06 0.31 0.73 0.60 0.73 1.03 1.18 1.13 0.84 1.19 1.37
3.60 3.32 3.07 3.29 3.65 4.47 3.96 2.46 2.59 1.62 1.87 2.74 1.60 1.14 0.93 0.64 0.67 0.75 0.50 0.64 0.43 0.53 0.65 0.98 0.92 0.55 0.30 0.11 0.02 0.01 0.02 0.06 0.28 0.71 0.98 0.77 0.97 1.63 2.00 1.70 2.21 1.73
4.06 3.99 3.96 4.12 4.57 4.03 3.10 3.99 2.77 2.97 3.11 3.38 2.81 2.81 2.23 1.13 0.69 0.53 0.56 0.54 0.47 0.65 0.80 0.67 0.93 0.76 0.13 0.05 0.02 0.01 0.02 0.07 0.12 0.73 0.83 0.49 0.80 1.01 1.24 1.97 2.25 2.66
3.38 3.67 4.33 5.48 5.36 4.64 3.71 3.71 3.72 3.62 4.27 4.05 3.12 2.57 2.17 1.22 1.28 0.89 0.83 0.91 0.93 0.81 0.43 0.59 0.45 0.20 0.03 0.03 0.02 0.02 0.02 0.03 0.17 0.50 0.57 0.42 0.83 1.89 1.50 2.34 2.35 2.18
3.40 4.54 4.04 3.89 3.91 4.31 4.26 4.53 5.00 5.14 4.40 4.03 3.17 2.75 2.17 1.35 1.72 1.46 1.24 1.92 1.35 1.01 0.76 0.68 0.37 0.42 0.09 0.06 0.05 0.03 0.04 0.05 0.19 0.44 0.71 0.91 1.23 1.45 1.37 2.49 2.47 1.88
4.37 4.22 4.81 4.92 3.95 3.94 3.97 4.92 5.17 5.05 4.80 5.00 4.20 3.95 4.48 4.62 3.36 2.33 3.31 3.11 2.47 1.29 0.75 0.53 0.30 0.21 0.30 0.36 0.36 0.04 0.05 0.16 0.67 0.85 0.81 1.50 1.63 2.17 1.99 1.86 1.74 1.50
3.59 4.18 4.41 5.11 5.12 4.29 4.87 5.61 5.00 4.60 4.16 4.04 4.87 4.07 4.86 5.49 4.25 3.71 5.35 4.26 3.20 2.46 1.01 0.81 0.52 0.86 0.77 0.86 1.36 1.08 1.12 1.31 1.28 1.55 1.86 1.90 1.99 2.99 3.37 1.78 2.47 1.82
3.56 4.24 3.57 4.11 3.90 4.61 6.19 5.76 6.23 6.52 5.77 4.67 5.15 6.28 6.37 4.57 4.94 5.59 5.16 3.94 2.88 2.40 2.28 1.77 1.72 1.50 2.03 1.18 1.47 1.70 0.81 2.78 3.53 2.02 1.88 2.34 2.93 2.58 2.50 2.02 2.52 1.83